Location: Nebraska Star Party
(42.6000°N, 100.8833°W)
Time: 21:21:46
(UTC-05:00)

Amateur Radio Satellites - All Passes

Search period start: 01 October 2014 20:51
Search period end: 02 October 2014 20:51
Location: Nebraska Star Party, 42.6000°N, 100.8833°W

Satellite Date Start Highest point End Downlink Frequencies (MHz)
Time Altitude Azimuth
STRAND 1 01 Oct 20:53:47 20:58:57 77° 286° (WNW) 21:04:06 ?
KITSAT 1 01 Oct 20:54:14 21:00:00 21° 331° (NNW) 21:05:47 435.175 FM
SO-50 01 Oct 21:18:36 21:22:40 32° 313° (NW) 21:26:52 436.795 FM
UKube-1 01 Oct 21:22:01 21:25:00 19° 64° (ENE) 21:28:00 145.840 MHz, 145.915 MHz
UOSAT-12 01 Oct 21:41:43 21:46:09 48° 118° (ESE) 21:50:41 437.025 FM, 437.400 FM
ZACube-1 01 Oct 22:03:16 22:06:15 17° 63° (ENE) 22:09:16 437.345 MHz
HO-68 01 Oct 22:08:37 22:15:43 70° 256° (WSW) 22:22:53 435.675 MHz FM
Oscar 11 01 Oct 22:26:16 22:30:35 65° 74° (ENE) 22:34:55 145.825 FM, Beacon 2401.500 USB
STRAND 1 01 Oct 22:35:58 22:37:16 11° 304° (WNW) 22:38:33 ?
ISS 01 Oct 22:49:57 22:53:09 47° 140° (SE) 22:56:22 145.800 FM
FUNcube-1 01 Oct 22:52:24 22:56:48 52° 73° (ENE) 23:01:18 145.950 - 145.970 MHz USB
KITSAT 1 01 Oct 22:56:05 22:59:17 13° 2° (N) 23:02:28 435.175 FM
UKube-1 01 Oct 22:56:45 23:00:53 43° 261° (W) 23:05:03 145.840 MHz, 145.915 MHz
Saudisat 1A 01 Oct 23:00:32 23:04:41 38° 49° (NE) 23:08:48 436.775 MHz
UOSAT-12 01 Oct 23:22:41 23:26:33 25° 317° (NW) 23:30:28 437.025 FM, 437.400 FM
ZACube-1 01 Oct 23:37:47 23:42:13 53° 261° (W) 23:46:45 437.345 MHz
HO-68 02 Oct 00:02:55 00:04:39 11° 274° (W) 00:06:24 435.675 MHz FM
Oscar 11 02 Oct 00:05:35 00:07:11 12° 271° (W) 00:08:48 145.825 FM, Beacon 2401.500 USB
ISS 02 Oct 00:26:58 00:29:57 30° 338° (NNW) 00:32:57 145.800 FM
FUNcube-1 02 Oct 00:30:38 00:33:30 16° 269° (W) 00:36:23 145.950 - 145.970 MHz USB
Saudisat 1A 02 Oct 00:40:27 00:44:05 25° 247° (WSW) 00:47:42 436.775 MHz
KITSAT 1 02 Oct 00:52:17 00:58:25 23° 32° (NNE) 01:04:30 435.175 FM
RS-15 02 Oct 01:38:21 01:46:17 24° 101° (ESE) 01:54:07 29.354 - 29.394 USB, Beacon 29.352 USB
ISS 02 Oct 02:05:07 02:07:25 17° 359° (N) 02:09:42 145.800 FM
Oscar 19 02 Oct 02:27:07 02:31:13 24° 94° (E) 02:35:16 437.125 CW, 437.150 USB
ITAMSAT 1 02 Oct 02:42:16 02:44:48 14° 89° (E) 02:47:20 435.822 SSB
Uribyol 2 02 Oct 02:42:38 02:45:30 15° 90° (E) 02:48:21 436.500 FM
KITSAT 1 02 Oct 02:47:13 02:55:19 73° 56° (NE) 03:03:22 435.175 FM
JAS-1B 02 Oct 02:50:49 02:55:28 25° 95° (E) 03:00:25 435.800 - 435.900 CW/SSB
Oscar 16 02 Oct 03:07:41 03:12:47 58° 101° (E) 03:17:50 437.025 USB, Beacon 2401.1428
AO-Echo 02 Oct 03:09:35 03:14:02 31° 96° (E) 03:18:35 ?
AO-27 02 Oct 03:19:21 03:23:59 31° 96° (E) 03:28:36 436.795 MHz FM
ISS 02 Oct 03:42:03 03:44:55 26° 19° (NNE) 03:47:46 145.800 FM
RS-15 02 Oct 03:46:04 03:57:08 89° 302° (WNW) 04:08:08 29.354 - 29.394 USB, Beacon 29.352 USB
Gurwin Techsat 1B 02 Oct 03:49:40 03:54:19 30° 95° (E) 03:58:55 435.225 FM
OPAL 02 Oct 03:54:18 03:55:14 11° 53° (NE) 03:56:11 ?
Oscar 19 02 Oct 04:05:52 04:10:44 43° 291° (WNW) 04:15:32 437.125 CW, 437.150 USB
SO-50 02 Oct 04:08:33 04:13:04 39° 49° (NE) 04:17:38 436.795 FM
TMSAT-1 02 Oct 04:17:26 04:22:25 39° 98° (E) 04:27:22 436.925 FM
ITAMSAT 1 02 Oct 04:19:37 04:24:52 76° 286° (WNW) 04:30:04 435.822 SSB
Uribyol 2 02 Oct 04:20:16 04:25:29 71° 287° (WNW) 04:30:40 436.500 FM
UOSAT-12 02 Oct 04:32:29 04:33:59 11° 31° (NNE) 04:35:27 437.025 FM, 437.400 FM
JAS-1B 02 Oct 04:41:01 04:46:23 45° 291° (WNW) 04:52:09 435.800 - 435.900 CW/SSB
KITSAT 1 02 Oct 04:43:40 04:49:58 26° 255° (WSW) 04:56:15 435.175 FM
AO-7 02 Oct 04:44:21 04:50:15 21° 91° (E) 04:56:06 29.400 - 29.500 MHz
Oscar 16 02 Oct 04:48:07 04:51:41 19° 298° (WNW) 04:55:13 437.025 USB, Beacon 2401.1428
AO-Echo 02 Oct 04:48:18 04:52:47 33° 292° (WNW) 04:57:21 ?
AO-27 02 Oct 04:58:48 05:03:29 34° 293° (WNW) 05:08:09 436.795 MHz FM
ISS 02 Oct 05:18:32 05:21:50 65° 217° (SW) 05:25:07 145.800 FM
OPAL 02 Oct 05:27:59 05:33:10 70° 71° (ENE) 05:38:22 ?
Gurwin Techsat 1B 02 Oct 05:29:29 05:34:18 36° 292° (WNW) 05:39:07 435.225 FM
MaSat-1 02 Oct 05:48:15 05:52:36 34° 109° (ESE) 05:56:46 437.345 MHz
SO-50 02 Oct 05:49:22 05:53:31 29° 246° (WSW) 05:57:42 436.795 FM
TMSAT-1 02 Oct 05:57:42 06:02:10 28° 295° (WNW) 06:06:36 436.925 FM
JAS-2 02 Oct 06:01:08 06:05:32 18° 90° (E) 06:10:09 435.800 - 435.900 CW/SSB, 435.910 FM
RS-15 02 Oct 06:01:33 06:11:06 33° 330° (NNW) 06:20:44 29.354 - 29.394 USB, Beacon 29.352 USB
ITAMSAT 1 02 Oct 06:02:07 06:03:27 11° 304° (NW) 06:04:47 435.822 SSB
Uribyol 2 02 Oct 06:03:32 06:04:00 10° 305° (NW) 06:04:28 436.500 FM
Uosat F 02 Oct 06:10:14 06:15:18 73° 103° (ESE) 06:20:19 435.120 FM
UOSAT-12 02 Oct 06:10:36 06:15:14 52° 52° (NE) 06:19:47 437.025 FM, 437.400 FM
STRAND 1 02 Oct 06:32:59 06:36:47 22° 63° (ENE) 06:40:37 ?
AO-7 02 Oct 06:35:36 06:43:55 84° 290° (WNW) 06:52:14 29.400 - 29.500 MHz
OPAL 02 Oct 07:09:32 07:12:31 15° 268° (W) 07:15:31 ?
MaSat-1 02 Oct 07:24:47 07:29:03 31° 304° (NW) 07:33:05 437.345 MHz
JAS-2 02 Oct 07:44:22 07:51:07 87° 285° (WNW) 07:58:37 435.800 - 435.900 CW/SSB, 435.910 FM
Uosat F 02 Oct 07:50:38 07:53:28 15° 300° (WNW) 07:56:18 435.120 FM
Hamsat 02 Oct 07:51:28 07:55:40 73° 284° (WNW) 07:59:49 145.90 MHz
UOSAT-12 02 Oct 07:51:36 07:55:01 20° 249° (WSW) 07:58:23 437.025 FM, 437.400 FM
STRAND 1 02 Oct 08:10:42 08:15:38 50° 260° (W) 08:20:36 ?
RS-15 02 Oct 08:20:00 08:28:09 23° 5° (N) 08:36:25 29.354 - 29.394 USB, Beacon 29.352 USB
AO-7 02 Oct 08:29:53 08:35:33 21° 310° (NW) 08:41:14 29.400 - 29.500 MHz
SO-67 02 Oct 09:12:41 09:16:04 51° 285° (WNW) 09:19:25 435.3500 MHz FM
Sapphire 02 Oct 09:12:41 09:16:20 19° 105° (ESE) 09:20:00 437.095 MHz 1200 baud AX-25 AFSK
JAS-2 02 Oct 09:31:12 09:35:26 18° 301° (WNW) 09:39:56 435.800 - 435.900 CW/SSB, 435.910 FM
HO-68 02 Oct 09:36:31 09:41:54 22° 92° (E) 09:47:14 435.675 MHz FM
PCSat 02 Oct 09:36:45 09:41:32 33° 110° (ESE) 09:46:20 145.825 MHz
Oscar 11 02 Oct 10:15:42 10:16:56 11° 89° (E) 10:18:09 145.825 FM, Beacon 2401.500 USB
RS-15 02 Oct 10:34:18 10:44:37 42° 38° (NE) 10:55:14 29.354 - 29.394 USB, Beacon 29.352 USB
UKube-1 02 Oct 10:44:21 10:48:09 28° 96° (E) 10:51:56 145.840 MHz, 145.915 MHz
Sapphire 02 Oct 10:53:52 10:59:13 64° 303° (WNW) 11:04:38 437.095 MHz 1200 baud AX-25 AFSK
PCSat 02 Oct 11:19:49 11:24:51 38° 309° (NW) 11:29:56 145.825 MHz
HO-68 02 Oct 11:23:02 11:30:12 72° 290° (WNW) 11:37:20 435.675 MHz FM
ZACube-1 02 Oct 11:26:46 11:30:45 29° 95° (E) 11:34:38 437.345 MHz
Oscar 11 02 Oct 11:49:16 11:53:34 67° 285° (WNW) 11:57:50 145.825 FM, Beacon 2401.500 USB
FUNcube-1 02 Oct 12:17:08 12:21:43 82° 284° (WNW) 12:26:09 145.950 - 145.970 MHz USB
UKube-1 02 Oct 12:20:34 12:24:16 27° 293° (WNW) 12:27:56 145.840 MHz, 145.915 MHz
Sapphire 02 Oct 12:41:07 12:43:46 14° 324° (NW) 12:46:25 437.095 MHz 1200 baud AX-25 AFSK
RS-15 02 Oct 12:46:46 12:57:47 71° 243° (WSW) 13:09:18 29.354 - 29.394 USB, Beacon 29.352 USB
Oscar 16 02 Oct 12:49:38 12:51:53 13° 58° (ENE) 12:54:07 437.025 USB, Beacon 2401.1428
ZACube-1 02 Oct 13:03:12 13:07:04 28° 292° (WNW) 13:10:52 437.345 MHz
HO-68 02 Oct 13:12:52 13:16:40 15° 310° (NW) 13:20:29 435.675 MHz FM
JAS-1B 02 Oct 13:37:06 13:43:01 28° 64° (ENE) 13:48:14 435.800 - 435.900 CW/SSB
Oscar 19 02 Oct 13:44:28 13:49:12 37° 68° (ENE) 13:53:57 437.125 CW, 437.150 USB
ITAMSAT 1 02 Oct 14:00:26 14:04:28 24° 63° (ENE) 14:08:32 435.822 SSB
Uribyol 2 02 Oct 14:00:46 14:04:56 25° 64° (ENE) 14:09:07 436.500 FM
AO-Echo 02 Oct 14:23:34 14:27:56 40° 70° (ENE) 14:32:21 ?
Oscar 16 02 Oct 14:25:15 14:30:27 89° 75° (ENE) 14:35:41 437.025 USB, Beacon 2401.1428
AO-27 02 Oct 14:38:07 14:43:06 51° 71° (ENE) 14:48:08 436.795 MHz FM
Saudisat 1A 02 Oct 14:46:32 14:50:53 70° 121° (ESE) 14:55:17 436.775 MHz
RS-15 02 Oct 15:02:25 15:08:04 15° 263° (W) 15:13:52 29.354 - 29.394 USB, Beacon 29.352 USB
Gurwin Techsat 1B 02 Oct 15:11:21 15:16:26 50° 71° (ENE) 15:21:34 435.225 FM
Oscar 19 02 Oct 15:24:11 15:28:36 28° 265° (W) 15:33:02 437.125 CW, 437.150 USB
JAS-1B 02 Oct 15:26:05 15:33:27 54° 259° (WSW) 15:39:42 435.800 - 435.900 CW/SSB
MaSat-1 02 Oct 15:38:41 15:42:03 66° 62° (ENE) 15:44:56 437.345 MHz
ITAMSAT 1 02 Oct 15:38:42 15:43:40 46° 261° (W) 15:48:40 435.822 SSB
TMSAT-1 02 Oct 15:38:50 15:44:03 66° 73° (ENE) 15:49:19 436.925 FM
Uribyol 2 02 Oct 15:39:14 15:44:09 43° 261° (W) 15:49:07 436.500 FM
AO-7 02 Oct 15:44:01 15:51:08 34° 57° (ENE) 15:58:16 29.400 - 29.500 MHz
Uosat F 02 Oct 15:48:25 15:51:04 15° 59° (ENE) 15:53:44 435.120 FM
Oscar 10/S400 02 Oct 15:57:24 16:14:05 33° 150° (SSE) 16:36:15 145.825 - 145.975 CW/USB, Beacon 145.810 USB
AO-Echo 02 Oct 16:03:19 16:06:53 21° 267° (W) 16:10:30 ?
Oscar 16 02 Oct 16:09:09 16:10:29 11° 272° (W) 16:11:50 437.025 USB, Beacon 2401.1428
AO-27 02 Oct 16:19:07 16:22:54 20° 267° (W) 16:26:43 436.795 MHz FM
Saudisat 1A 02 Oct 16:27:54 16:30:56 18° 320° (NW) 16:33:58 436.775 MHz
Gurwin Techsat 1B 02 Oct 16:52:42 16:56:41 21° 267° (W) 17:00:41 435.225 FM
KITSAT 1 02 Oct 17:16:12 17:23:45 46° 111° (ESE) 17:31:19 435.175 FM
TMSAT-1 02 Oct 17:21:14 17:24:26 16° 270° (W) 17:27:40 436.925 FM
Uosat F 02 Oct 17:24:14 17:29:13 76° 257° (WSW) 17:34:15 435.120 FM
AO-7 02 Oct 17:35:19 17:43:29 61° 256° (WSW) 17:51:41 29.400 - 29.500 MHz
OPAL 02 Oct 17:38:45 17:41:52 16° 93° (E) 17:44:58 ?
Sapphire 02 Oct 17:58:29 18:02:39 22° 44° (NE) 18:06:47 437.095 MHz 1200 baud AX-25 AFSK
JAS-2 02 Oct 17:58:47 18:03:35 40° 68° (ENE) 18:08:41 435.800 - 435.900 CW/SSB, 435.910 FM
PCSat 02 Oct 18:23:31 18:28:26 33° 50° (NE) 18:33:18 145.825 MHz
Hamsat 02 Oct 18:44:59 18:49:19 85° 77° (ENE) 18:53:38 145.90 MHz
KITSAT 1 02 Oct 19:11:26 19:19:09 47° 312° (NW) 19:26:54 435.175 FM
OPAL 02 Oct 19:16:09 19:21:11 62° 290° (WNW) 19:26:07 ?
Sapphire 02 Oct 19:41:11 19:46:36 69° 243° (WSW) 19:51:58 437.095 MHz 1200 baud AX-25 AFSK
JAS-2 02 Oct 19:44:41 19:48:55 25° 267° (W) 19:53:21 435.800 - 435.900 CW/SSB, 435.910 FM
SO-67 02 Oct 19:45:50 19:49:10 51° 75° (ENE) 19:52:32 435.3500 MHz FM
SO-50 02 Oct 20:04:13 20:08:41 81° 122° (ESE) 20:13:19 436.795 FM
PCSat 02 Oct 20:06:53 20:11:54 39° 248° (WSW) 20:16:53 145.825 MHz
HO-68 02 Oct 20:07:10 20:12:00 20° 54° (NE) 20:16:51 435.675 MHz FM
STRAND 1 02 Oct 20:20:22 20:25:25 52° 100° (E) 20:30:26 ?
UOSAT-12 02 Oct 20:25:12 20:27:07 13° 107° (ESE) 20:29:04 437.025 FM, 437.400 FM
